DLH5Y EDDM-KSAN

Flight info

Callsign DLH5Y
Flight time N/A
Altitude 40000
Route INPUD3E INPUD Y102 ALIBU L604 RELBI L602 RKN L980 TENLI L602 SUPUR P1 GODOS M981 NATEB N97 TLA L602 GOW ERAKA/M084F360 60N020W 62N030W/M085F380 63N040W 62N050W PIDSO MIBNO/N0500F380 TUNNI 58N080W 54N090W/N0481F400 HML KP09A KP90Y KD81W MBW EKR KD48Q PGS PKE LUCKI1
Aircraft A359/H-SDE2E3GHIJ3J4J5LM1ORWXY/LB1D1

Departure

Time N/A
Airport Munich Airport (EDDM)

Arrival

Time 2026-04-22 15:14
Airport San Diego International Airport (KSAN)
Time Latitude Longitude Altitude Speed Heading
2026-04-22 14:58 33.24009 -116.43198 19001 ft 395 kts 167°
2026-04-22 14:59 33.21447 -116.41703 19011 ft 425 kts 152°
2026-04-22 14:59 33.18867 -116.40156 19354 ft 408 kts 167°
2026-04-22 14:59 33.16208 -116.39404 19190 ft 379 kts 179°
2026-04-22 14:59 33.13656 -116.39299 18510 ft 359 kts 189°
2026-04-22 15:00 33.11215 -116.39696 17525 ft 349 kts 197°
2026-04-22 15:00 33.08896 -116.40415 16578 ft 341 kts 202°
2026-04-22 15:00 33.06669 -116.41327 15654 ft 335 kts 205°
2026-04-22 15:00 33.04517 -116.42347 14756 ft 330 kts 207°
2026-04-22 15:01 33.02473 -116.43401 14263 ft 318 kts 208°
2026-04-22 15:01 33.00540 -116.44558 13958 ft 302 kts 216°
2026-04-22 15:01 32.98873 -116.46005 13606 ft 283 kts 223°
2026-04-22 15:01 32.97386 -116.47461 13237 ft 280 kts 224°
2026-04-22 15:02 32.95879 -116.48978 12891 ft 283 kts 224°
2026-04-22 15:02 32.94382 -116.50487 12575 ft 280 kts 224°
2026-04-22 15:02 32.92895 -116.51987 12216 ft 280 kts 224°
2026-04-22 15:02 32.91406 -116.53488 11864 ft 280 kts 224°
2026-04-22 15:03 32.89930 -116.54976 11515 ft 278 kts 224°
2026-04-22 15:03 32.88450 -116.56469 11173 ft 278 kts 224°
2026-04-22 15:03 32.86997 -116.57931 10801 ft 270 kts 224°
2026-04-22 15:03 32.85544 -116.59397 10549 ft 276 kts 224°
2026-04-22 15:04 32.84100 -116.60852 10136 ft 271 kts 224°
2026-04-22 15:04 32.82637 -116.62328 9821 ft 276 kts 224°
2026-04-22 15:04 32.81175 -116.63799 9319 ft 275 kts 224°
2026-04-22 15:04 32.79733 -116.65248 8919 ft 275 kts 224°
2026-04-22 15:05 32.78287 -116.66735 8571 ft 274 kts 226°
2026-04-22 15:05 32.77042 -116.68429 8256 ft 270 kts 238°
2026-04-22 15:05 32.76053 -116.70320 7959 ft 271 kts 243°
2026-04-22 15:05 32.75129 -116.72260 7618 ft 270 kts 244°
2026-04-22 15:06 32.74523 -116.73549 7383 ft 268 kts 244°
2026-04-22 15:06 32.73316 -116.76120 6948 ft 267 kts 244°
2026-04-22 15:06 32.72408 -116.78048 6618 ft 267 kts 244°
2026-04-22 15:06 32.71498 -116.79970 6272 ft 266 kts 244°
2026-04-22 15:07 32.70651 -116.81918 5933 ft 264 kts 249°
2026-04-22 15:07 32.69979 -116.83901 5746 ft 254 kts 252°
2026-04-22 15:07 32.69377 -116.85824 5587 ft 243 kts 252°
2026-04-22 15:07 32.68816 -116.87643 5444 ft 232 kts 252°
2026-04-22 15:08 32.68281 -116.89419 5049 ft 227 kts 253°
2026-04-22 15:08 32.67789 -116.91195 4740 ft 226 kts 256°
2026-04-22 15:08 32.67490 -116.93009 4420 ft 223 kts 266°
2026-04-22 15:08 32.67500 -116.94822 4048 ft 216 kts 278°
2026-04-22 15:09 32.67794 -116.96510 3791 ft 201 kts 287°
2026-04-22 15:09 32.68165 -116.98040 3634 ft 188 kts 288°
2026-04-22 15:09 32.68525 -116.99462 3432 ft 173 kts 288°
2026-04-22 15:09 32.68868 -117.00813 2946 ft 170 kts 288°
2026-04-22 15:10 32.69200 -117.02133 2714 ft 160 kts 288°
2026-04-22 15:10 32.69500 -117.03336 2662 ft 144 kts 288°
2026-04-22 15:10 32.69773 -117.04426 2665 ft 137 kts 289°
2026-04-22 15:10 32.70044 -117.05509 2673 ft 137 kts 288°
2026-04-22 15:11 32.70340 -117.06586 2629 ft 140 kts 292°
2026-04-22 15:11 32.70630 -117.07713 2400 ft 141 kts 286°
2026-04-22 15:11 32.70885 -117.08808 2255 ft 139 kts 288°
2026-04-22 15:11 32.71135 -117.09924 1936 ft 141 kts 286°
2026-04-22 15:12 32.71401 -117.11061 1563 ft 144 kts 287°
2026-04-22 15:12 32.71686 -117.12220 1163 ft 149 kts 288°
2026-04-22 15:12 32.71986 -117.13375 877 ft 145 kts 288°
2026-04-22 15:12 32.72269 -117.14497 685 ft 137 kts 286°
2026-04-22 15:13 32.72522 -117.15565 475 ft 135 kts 284°
2026-04-22 15:13 32.72782 -117.16640 274 ft 136 kts 287°
2026-04-22 15:13 32.73047 -117.17713 100 ft 134 kts 286°
2026-04-22 15:13 32.73300 -117.18749 32 ft 123 kts 286°
2026-04-22 15:14 32.73480 -117.19479 32 ft 51 kts 286°
2026-04-22 15:14 32.73528 -117.19710 36 ft 22 kts 275°
2026-04-22 15:14 32.73496 -117.19866 34 ft 14 kts 252°
2026-04-22 15:14 32.73486 -117.19905 33 ft 0 kts 252°
2026-04-22 15:16 32.73486 -117.19907 33 ft 0 kts 256°
2026-04-22 15:16 32.73488 -117.19934 33 ft 7 kts 277°
2026-04-22 15:17 32.73506 -117.20016 32 ft 12 kts 286°
2026-04-22 15:17 32.73533 -117.20130 32 ft 16 kts 286°
2026-04-22 15:17 32.73567 -117.20269 30 ft 19 kts 286°
2026-04-22 15:17 32.73581 -117.20406 30 ft 15 kts 248°
2026-04-22 15:18 32.73511 -117.20510 29 ft 14 kts 229°
2026-04-22 15:18 32.73482 -117.20541 26 ft 6 kts 214°
2026-04-22 15:18 32.73440 -117.20560 28 ft 7 kts 193°
2026-04-22 15:18 32.73388 -117.20571 29 ft 9 kts 189°
2026-04-22 15:19 32.73326 -117.20564 30 ft 10 kts 167°
2026-04-22 15:19 32.73262 -117.20542 31 ft 7 kts 163°